Location: Kostkowice
(50.5852°N, 19.5705°E)
Time: 19:43:17
(UTC+00:00)

Daily predictions for brighter satellites

Satellite Brightness Start Highest point End
(mag) Time Altitude Azimuth Time Altitude Azimuth Time Altitude Azimuth
SL-16 R/B 3.3 17:08:42 10° SSE 17:13:01 23° ESE 17:17:20 10° NE
USA 306 3.0 17:12:54 10° WNW 17:15:51 43° N 17:19:17 10° ENE
SKYMED 2 4.0 17:13:59 10° N 17:18:20 69° WNW 17:22:39 10° SSW
GENESIS II 3.9 17:15:40 10° SSW 17:19:07 61° SE 17:22:35 10° NE
ATLAS 2AS CENTAUR R/B 4.2 17:14:19 10° WNW 17:20:21 28° N 17:26:11 10° NE
Cosmos 1733 3.2 17:17:30 10° SSE 17:20:47 44° E 17:24:03 10° NNE
Cosmos 1315 Rocket 3.1 17:17:15 10° N 17:21:07 46° ENE 17:24:56 10° SSE
SAR-Lupe-2 3.7 17:17:39 10° SSE 17:21:08 51° ENE 17:24:38 10° N
Cosmos 1805 4.2 17:20:59 10° SE 17:23:53 23° E 17:26:49 10° NE
Cosmos 2278 Rocket 3.4 17:18:38 10° NW 17:24:01 46° WSW 17:29:23 10° S
Cosmos 1842 3.7 17:21:47 10° NNW 17:25:22 60° W 17:28:56 10° S
BREEZE-M DEB (TANK) 3.2 17:23:09 10° W 17:25:40 79° S 17:30:58 10° E
Meteor 1-11 Rocket 3.9 17:20:36 10° SSE 17:25:54 48° E 17:31:11 10° NNE
Cosmos 1536 2.7 17:22:42 10° S 17:26:29 62° E 17:30:19 10° NNE
Resurs 1-3 3.6 17:22:16 10° SSE 17:26:32 63° ENE 17:30:51 10° N
SPOT 1/Viking Rocket 3.6 17:21:45 10° SSE 17:26:49 61° ENE 17:31:55 10° N
USA 59 Rocket 3.0 17:25:41 10° W 17:28:30 17° WSW 17:31:54 10° SSW
Meteor 1-14 Rocket 4.2 17:23:24 10° S 17:28:56 90° S 17:34:34 10° NNE
COSMOS 2428 3.8 17:24:16 10° SW 17:29:48 49° NW 17:35:23 10° NNE
Meteor 2-9 Rocket 4.4 17:24:55 10° SSE 17:30:00 45° E 17:35:16 10° NNE
Cosmos 1515 Rocket 3.5 17:26:20 10° N 17:30:42 85° ENE 17:35:05 10° S
ATLAS CENTAUR R/B 1.6 17:28:53 10° SW 17:32:27 61° NW 17:36:14 10° NE
SL-14 R/B 4.0 17:30:01 10° N 17:33:29 32° ENE 17:36:57 10° SE
ADEOS 3.6 17:28:44 10° SSE 17:33:55 71° ENE 17:39:08 10° NNW
CSL-04 Rocket 4.3 17:31:20 10° SE 17:36:05 35° ENE 17:40:51 10° N
CZ-4B DEB 4.2 17:31:55 10° SSE 17:37:20 64° ENE 17:42:46 10° N
CZ-4B R/B 3.7 17:32:41 10° SE 17:37:38 39° ENE 17:42:34 10° N
Cosmos 1356 Rocket 4.4 17:35:32 10° NNW 17:39:37 52° W 17:43:38 10° S
Cosmos 836 Rocket 4.5 17:40:04 10° S 17:45:18 65° ESE 17:50:33 10° NNE
Nadezhda 4 Rocket 4.0 17:40:03 10° N 17:46:22 80° E 17:52:43 10° SSE
Cosmos 1500 Rocket 3.7 17:42:22 10° SSE 17:46:31 48° E 17:50:42 10° NNE
YAOGAN 1 3.8 17:43:51 10° S 17:47:57 44° W 17:52:06 10° NNW
NOSS 3-3 (C) 3.8 17:43:01 10° SSW 17:48:26 74° SE 17:54:53 10° NE
CZ-4B R/B 3.4 17:45:10 10° SSE 17:49:58 87° WSW 17:54:55 10° NNW
ARGOS Delta rocket 3.7 17:46:10 10° SSE 17:50:59 75° ENE 17:55:34 10° N
Cosmos 2237 Rocket 2.5 17:45:27 10° SW 17:51:04 71° WNW 17:56:43 10° NNE
Cosmos 773 Rocket 4.2 17:46:20 10° S 17:51:24 49° ESE 17:56:29 10° NNE
Cosmos 2026 Rocket 4.2 17:45:42 10° N 17:51:44 51° ENE 17:57:38 10° SSE
Cosmos 1570 Rocket 4.2 17:46:32 10° SSW 17:51:48 80° WNW 17:57:05 10° NNE
USA 267 3.8 17:45:35 10° ENE 17:52:01 60° NNW 17:58:27 10° W
In-Cosmos 22 4.4 17:47:10 10° NNW 17:52:49 75° W 17:58:17 10° S
Meteor 2-10 4.2 17:48:36 10° S 17:54:18 86° E 18:00:04 10° NNE
USA 186 2.1 17:52:08 14° SE 17:54:44 44° ENE 17:57:50 10° N
Cosmos 1943 Rocket 3.6 17:50:08 10° NW 17:55:12 38° WSW 18:00:16 10° S
SJ-6B 2.7 17:51:43 10° S 17:55:18 80° WSW 17:58:55 10° NNW
Cosmos 724 4.4 17:50:25 10° SSW 17:55:58 50° ESE 18:01:34 10° NE
Cosmos 2150 Rocket 4.1 17:51:04 10° NNW 17:56:14 75° WSW 18:01:21 10° SSE
Cosmos 1743 Rocket 3.8 17:52:22 10° SSE 17:56:29 45° E 18:00:40 10° NNE
Okean 3 Rocket 4.0 17:52:07 10° SSW 17:56:32 65° WNW 18:00:56 10° N
Cosmos 839 Rocket 4.5 17:49:18 10° SW 17:57:41 89° WNW 18:04:26 10° NE
SL-08 R/B 3.3 17:52:47 10° NNE 17:57:45 77° ESE 18:02:37 10° S
Cosmos 1408 Rocket 3.5 17:54:07 10° S 17:58:32 81° E 18:02:59 10° NNE
NOSS 3-3 (A) 3.8 17:53:04 10° SW 17:58:32 88° SE 18:05:04 10° NE
Cosmos 2298 Rocket 4.3 17:54:00 10° NNW 17:59:18 72° WSW 18:04:35 10° SSE
SWARM A 4.2 17:56:20 10° S 17:59:49 70° E 18:03:19 10° N
SeaSat 1 2.6 17:55:34 10° NNE 18:00:30 76° WNW 18:05:24 10° SW
Helios 1A 2.8 17:57:31 10° NNE 18:01:34 64° ESE 18:05:37 10° S
Cosmos 1092 Rocket 4.1 17:56:00 10° N 18:02:17 59° ENE 18:08:32 10° SSE
Cosmos 158 Rocket 4.1 17:58:13 10° SSW 18:03:04 71° WNW 18:07:58 10° NNE
USA 32 4.0 17:58:15 10° N 18:03:30 62° E 18:08:40 10° SSE
SKYMED 3 4.3 17:59:39 10° NNE 18:03:48 80° ESE 18:07:53 10° SSW
GEOS 3 Rocket 3.9 18:00:53 18° ESE 18:04:38 56° NE 18:09:41 10° NW
Sich 1 2.9 18:01:26 10° S 18:05:42 69° E 18:10:01 10° NNE
Okean O Rocket 2.2 18:03:42 19° SE 18:06:20 38° ENE 18:10:25 10° N
Cosmos 1766 4.4 18:07:23 21° ENE 18:07:23 21° ENE 18:09:52 10° NE
CARTOSAT-1 3.5 18:03:13 10° SSE 18:07:26 67° ENE 18:11:40 10° N
Tiangong 0.1 18:07:42 10° SSW 18:09:05 13° S 18:09:05 13° S
Cosmos 1656 Rocket 3.6 18:03:37 10° NNW 18:09:18 84° ENE 18:14:09 14° SSE
Cosmos 2297 3.6 18:05:05 10° NNW 18:10:46 78° ENE 18:15:21 16° SE
Cosmos 1607 4.0 18:05:08 10° SSW 18:11:32 70° SE 18:17:57 10° NE
Aureole 3 Rocket 3.1 18:06:39 10° S 18:12:06 67° E 18:16:04 10° NNE
CSL-04 Debris 4.2 18:07:31 10° SSE 18:12:57 69° ENE 18:18:24 10° NNW
CZ-4 R/B 1.5 18:11:42 10° S 18:15:33 70° WSW 18:19:31 10° NNW
Cosmos 2369 Rocket 2.2 18:09:54 10° NNW 18:15:39 71° ENE 18:19:41 20° SE
SPOT 5 3.6 18:14:53 24° E 18:16:11 28° ENE 18:19:55 10° N
MOS 1-B 4.4 18:11:07 13° SE 18:16:12 63° ENE 18:21:55 10° N
PAYLOAD B 4.3 18:10:52 10° SSE 18:16:29 85° WSW 18:22:08 10° NNW
Meteor 1-23 Rocket 4.3 18:12:09 10° NNW 18:17:49 83° W 18:23:32 10° S
Cosmos 1464 Rocket 4.4 18:12:37 10° SSW 18:18:57 68° WNW 18:25:21 10° N
ARIANE 6 FM1 Upper Stage 3.4 18:17:35 10° S 18:21:22 31° SE 18:21:46 31° ESE
Cosmos 1634 Rocket 4.1 18:15:45 10° SSE 18:21:50 54° E 18:27:59 10° NNE
NOSS 3-4 (A) 3.9 18:15:46 10° NW 18:22:31 83° SW 18:28:32 18° SE
NOSS 3-4 (C) 3.9 18:15:51 10° NW 18:22:37 83° SW 18:28:35 19° SE
Terra 3.2 18:22:16 20° ENE 18:23:02 20° ENE 18:26:29 10° NNE
Okean 2 4.3 18:19:46 10° N 18:23:16 28° ENE 18:23:34 28° E
CZ-4B R/B 3.4 18:21:20 10° S 18:25:20 60° W 18:29:30 10° NNW
Cosmos 1805 Rocket 3.7 18:25:14 10° SSW 18:29:33 75° W 18:33:56 10° N
Cosmos 2228 Rocket 3.1 18:25:48 10° N 18:30:22 63° ENE 18:32:38 28° SSE
Okean 1-7 3.9 18:26:52 10° N 18:30:39 29° ENE 18:30:54 29° ENE
Cosmos 1441 Rocket 2.9 18:29:41 17° S 18:32:15 65° E 18:35:48 10° NNE
Cosmos 1633 Rocket 3.6 18:32:47 36° E 18:33:03 36° E 18:37:05 10° NNE
Resurs 01 Rocket 1.9 18:30:24 11° S 18:34:42 68° WSW 18:39:07 10° NNW
Cosmos 2084 Rocket 3.5 18:31:07 10° SSW 18:35:19 52° SE 18:37:01 31° ENE
Cosmos 1975 2.6 18:31:30 10° S 18:35:22 85° E 18:39:17 10° NNE
Cosmos 192 4.2 18:32:15 10° NNW 18:37:09 71° ENE 18:39:13 34° SE
Okean-O 2.9 18:39:41 41° ESE 18:40:40 49° ENE 18:44:56 10° N
MOS 1 Rocket 4.0 18:41:01 35° ESE 18:42:35 45° ENE 18:47:42 10° N
Cosmos 1862 Rocket 3.5 18:38:39 10° N 18:43:05 68° ENE 18:44:35 40° SSE
Cosmos 2034 Rocket 4.5 18:40:03 10° SSW 18:46:09 62° WNW 18:52:17 10° N
Cosmos 1707 Rocket 3.4 18:41:47 10° N 18:46:14 83° E 18:47:57 37° SSE
ERS-1 Rocket 3.6 18:46:18 35° E 18:47:07 37° ENE 18:51:43 10° N
USA 306 2.3 18:45:14 10° WNW 18:48:37 75° NNE 18:48:52 70° ENE
ISS -3.8 18:45:47 10° W 18:49:10 78° N 18:49:13 78° NNE
Cosmos 1666 Rocket 3.4 18:51:16 44° SSE 18:52:28 66° E 18:56:46 10° NNE
Cosmos 2279 Rocket 3.9 18:48:40 17° S 18:53:23 61° E 18:59:30 10° NNE
ACS3 Solar Sail 1.9 18:48:36 16° S 18:53:57 83° WSW 19:00:25 10° NNW
SL-16 R/B 2.4 18:50:56 10° SW 18:56:35 71° WNW 19:02:16 10° NNE
SPOT 3 Rocket 4.5 19:00:54 30° ENE 19:01:02 30° ENE 19:05:29 10° N
IKONOS-2 4.3 18:58:50 10° NNE 19:03:01 89° W 19:04:31 39° SSW
Okean 3 3.5 19:03:31 10° NNW 19:07:42 71° W 19:08:32 53° SSW
Cosmos 1943 3.2 19:07:43 41° SSE 19:09:23 56° ESE 19:14:56 10° NE
ATLAS CENTAUR R/B 4.0 19:08:09 10° WNW 19:10:35 16° NNW 19:13:05 10° NNE
ATLAS 2AS CENTAUR R/B 3.8 19:06:59 10° NW 19:13:14 34° NNE 19:16:25 23° ENE
PSLV R/B 4.0 19:14:51 57° WNW 19:14:51 57° WNW 19:17:56 10° NNW
Ariane Rocket 3.6 19:17:37 41° ENE 19:17:37 41° ENE 19:22:08 10° N
Cosmos 1655 Rocket 4.4 19:11:48 10° N 19:17:57 45° ENE 19:18:34 44° E
CZ-4B R/B 4.4 19:13:16 10° SSW 19:18:14 37° W 19:23:11 10° NNW
MOS 1 4.3 19:17:17 40° S 19:19:27 77° WSW 19:25:10 10° NNW
IRS-1C Rocket 3.9 19:23:12 68° ESE 19:23:41 73° ENE 19:28:57 10° NNW
USA 267 3.8 19:31:14 28° ENE 19:34:33 52° N 19:40:52 10° WNW
Cosmos 2056 Rocket 4.0 19:35:11 10° NNW 19:39:51 47° NE 19:39:51 47° NE
Cosmos 2266 Rocket 3.9 19:35:17 10° N 19:41:39 90° NE 19:42:48 63° S
Okean O Rocket 3.4 19:41:03 22° SW 19:42:40 28° W 19:46:29 10° NW
SL-24 R/B - RUBIN 2 4.2 19:47:36 10° NW 19:54:02 89° WSW 19:54:07 88° SSE
SPOT 5 3.8 19:54:01 37° W 19:54:06 37° W 19:58:11 10° NNW
Cosmos 2369 Rocket 4.1 19:54:45 10° NW 19:59:07 23° WSW 20:01:28 18° SW
Terra 2.4 20:00:58 55° NW 20:00:58 55° NW 20:04:53 10° NNW
Cosmos 1420 Rocket 4.3 19:56:12 10° NNW 20:00:34 63° NNW 20:00:34 63° NNW
Cosmos 2344 4.0 19:54:38 10° NW 20:02:30 65° NE 20:05:08 49° E
BREEZE-M DEB (TANK) 3.6 19:50:38 10° WNW 20:03:29 62° SW 20:03:29 62° SW
Cosmos 1656 4.2 20:11:36 10° NNW 20:16:15 55° N 20:16:15 55° N
Meteor 1-24 Rocket 4.1 20:11:43 10° NNW 20:16:38 63° N 20:16:38 63° N
Cosmos 1980 Rocket 3.9 20:14:52 10° NNW 20:19:05 22° NE 20:19:05 22° NE
Spot 2 Rocket 4.4 20:23:41 46° WNW 20:23:41 46° WNW 20:27:42 10° NNW
ERS-1 Rocket 4.2 20:26:14 35° W 20:26:14 35° W 20:30:30 10° NNW
ACS3 Solar Sail 4.2 20:34:52 10° WSW 20:38:56 17° W 20:43:01 10° NW
Meteor 2-5 Rocket 4.4 20:39:51 10° NNW 20:44:36 53° NW 20:44:36 53° NW
ATLAS CENTAUR R/B 4.4 20:48:37 10° NNW 20:49:28 11° N 20:49:32 11° N
Cosmos 1697 Rocket 3.8 20:54:52 10° NNW 20:58:31 39° N 20:58:31 39° N
ATLAS 2AS CENTAUR R/B 3.0 20:58:13 10° NW 21:03:49 60° NNW 21:03:49 60° NNW
USA 267 3.7 21:18:35 58° NW 21:18:35 58° NW 21:23:47 10° WNW
SL-16 R/B 4.1 21:49:32 10° NNW 21:53:04 25° NNE 21:53:04 25° NNE
Cosmos 1980 Rocket 4.0 21:58:23 10° NNW 22:00:49 27° NNW 22:00:49 27° NNW
Cosmos 2333 Rocket 4.3 22:05:25 10° NNW 22:09:34 21° NNE 22:09:34 21° NNE
Cosmos 2360 Rocket 4.0 22:47:19 10° NNW 22:50:33 27° N 22:50:33 27° N
Cosmos 2219 Rocket 4.1 23:00:01 10° NNW 23:04:13 25° NNE 23:04:13 25° NNE
Cosmos 2322 Rocket 4.0 23:04:32 10° NNW 23:07:17 27° N 23:07:17 27° N
Cosmos 2082 Rocket 3.8 23:26:45 30° NNE 23:26:45 30° NNE 23:29:37 10° NNE
SL-16 R/B 4.3 23:33:19 10° NNW 23:34:52 19° NNW 23:34:52 19° NNW
COSMOS 2455 4.2 23:45:18 33° ENE 23:45:18 33° ENE 23:48:43 10° NE
CZ-2D R/B 4.2 23:41:00 10° NE 23:44:08 20° ENE 23:44:08 20° ENE
